Flag for Australia Weather past 2 weeks in Bendigo, Victoria, Australia

Now
45 °F

Quite cool.


Feels Like: 40 °F
Forecast: 44 / 63 °F
Wind: 9 mph from South

Location: Bendigo Airport Aws

Current Time: Apr 29, 2015 at 2:34:39 AM

Latest Report: Apr 29, 2015 at 2:00 AM


Visibility: N/A

Pressure: 30.37 "Hg

Humidity: 89%

Dew point: 42 °F

Location of BendigoLocation

Historic Weather in Bendigo — Graph

°F

Bendigo temperature yesterday

Maximum temperature yesterday: 60 °F (at 3:00 PM)
Minimum temperature yesterday: 43 °F (at 2:00 AM)
Average temperature yesterday: 52 °F

Past Weeks' High & Low Weather Summary

 TemperatureHumidityPressure
High80 °F (Apr 15, 5:00 PM)99% (Apr 17, 9:00 PM)30.56 "Hg (Apr 17, 9:00 PM)
Low43 °F (Apr 20, 2:00 AM)37% (Apr 20, 2:00 PM)29.65 "Hg (Apr 24, 3:00 PM)
Average57 °F72%30.12 "Hg
* Reported Midnight between Apr 13 and Apr 14 — Midnight between Apr 28 and Apr 29, Bendigo, Weather by CustomWeather, © 2015

Note: Actual official high and low records may vary slightly from our data, if they occured in-between our weather recording intervals... More about our weather records

Advertising

Bendigo weather history for previous 24 hours

 ConditionsComfort  
Time TempWeatherWind HumidityBarometerVisibility
12:00 AM
Wed, Apr 29
45 °FCool.7 mph90%30.37 "HgN/A
11:00 PM
Tue, Apr 28
47 °FCool.6 mph86%30.38 "HgN/A
9:00 PM50 °FCool.9 mph78%30.37 "HgN/A
8:00 PM51 °FCool.8 mph77%30.37 "HgN/A
6:00 PM54 °FCool.7 mph65%30.34 "HgN/A
5:00 PM58 °FRefreshingly cool.12 mph55%30.32 "HgN/A
3:00 PM60 °FOvercast.10 mph49%30.31 "HgN/A
2:00 PM59 °FRefreshingly cool.10 mph56%30.32 "HgN/A
12:00 PM58 °FOvercast.9 mph60%30.36 "HgN/A
11:00 AM58 °FCool.10 mph61%30.37 "HgN/A
9:00 AM54 °FCool.8 mph72%30.37 "HgN/A
8:00 AM47 °FCool.6 mph92%30.35 "HgN/A
6:00 AM47 °FOvercast.3 mph86%30.31 "HgN/A
5:00 AM48 °FCool.6 mph84%30.30 "HgN/A
3:00 AM43 °FPassing clouds.7 mph90%30.28 "HgN/A
2:00 AM43 °FQuite cool.6 mph91%30.28 "HgN/A
Weather by CustomWeather, © 2015

See weather overviewHow to use our weather pages